Location: Chassagnes
(44.4047°N, 4.1657°E)
Time: 13:02:26
(UTC+00:00)

Cosmos 2227 Rocket - Pass Details

Date: 27 October 2020
Orbit: 839 x 845 km, 71.0° (Epoch: 23 November)

Event Time Altitude Azimuth Distance (km) Brightness Sun altitude
Rises 19:05:26 0° 326° (NW) 3,407 5.9 -26.6°
Reaches altitude 10° 19:08:05 10° 318° (NW) 2,468 5.2 -27.1°
Maximum altitude 19:13:05 33° 255° (WSW) 1,374 3.7 -28.0°
Drops below altitude 10° 19:18:05 10° 193° (SSW) 2,456 4.6 -28.9°
Enters shadow 19:19:51 - 186° (S) 3,073 5.1 -29.2°
